Regional Weather Roundup
Issued by NWS

Home | Current Version | Previous Version | Text Only | Print | Product List | Glossary Off
Versions: 1 2 3 4 5 6 7 8 9 10 11 12 13 14 15 16 17 18 19 20 21 22 23 24 25 26 27 28 29 30 31 32 33 34 35 36 37 38 39 40 41 42 43 44 45 46 47 48 49 50

000
ASUS43 KLMK 202310
RWRKY
KENTUCKY REGIONAL WEATHER ROUNDUP
NATIONAL WEATHER SERVICE LOUISVILLE KY
700 PM EDT SAT SEP 20 2014

NOTE "FAIR" INDICATES FEW OR NO CLOUDS BELOW 12,000 FEET
WITH NO SIGNIFICANT WEATHER AND/OR OBSTRUCTIONS TO VISIBILITY.

KYZ001>023-026-027-061>063-070>075-210000-
WESTERN AND SOUTH CENTRAL KENTUCKY

CITY           SKY/WX    TMP DP  RH WIND       PRES   REMARKS
PADUCAH        MOSUNNY   85  68  56 SW5       29.95F
HENDERSON      PTCLDY    82  63  51 SW8       29.93F
OWENSBORO      CLEAR     83  66  56 SW12      29.94F
HOPKINSVILLE   PTCLDY    82  67  60 SW9       29.98S
BOWLING GREEN  CLOUDY    79  68  69 S5        29.98F
GLASGOW        CLOUDY    77  64  63 CALM      29.98F
$$

KYZ024-025-028>034-038-045-046-053-210000-
NORTH CENTRAL KENTUCKY

CITY           SKY/WX    TMP DP  RH WIND       PRES   REMARKS
LOUISVILLE/SDF MOCLDY    81  65  58 SW8       29.94F
LOUISVILLE/LOU CLEAR     81  65  58 VRB7      29.95F
FORT KNOX      CLEAR     80  65  61 SW5       29.95F
$$

KYZ035>037-039>044-047>052-055>060-089>105-210000-
NORTHEAST KENTUCKY

CITY           SKY/WX    TMP DP  RH WIND       PRES   REMARKS
LEXINGTON      CLEAR     79  63  57 SW9       29.98F
COVINGTON      PTCLDY    77  63  61 SW6       29.94F
FRANKFORT      CLEAR     78  64  61 SW7       29.95F
$$

KYZ054-064>069-076>088-106>120-210000-
SOUTHEAST KENTUCKY

CITY           SKY/WX    TMP DP  RH WIND       PRES   REMARKS
JACKSON        CLEAR     75  64  68 CALM      30.03F
LONDON         CLEAR     80  61  52 SW6       30.03F
SOMERSET       CLEAR     77  61  57 W3        30.02F
MIDDLESBORO    CLEAR     75  65  70 CALM      30.05S
MONTICELLO     CLEAR     80  66  62 SW5       30.03F
$$



USA.gov is the U.S. government's official web portal to all federal, state and local government web resources and services.